Previsão horária em Celej

Hoje, 3 Agosto, Terça-feira

Tempo Temperatura Precipitação Vento Pressão Humidade
00:00 +14°C° 0 mm 3 m/s 744 mmHg 80%
01:00 +13°C° 0 mm 3 m/s 744 mmHg 83%
02:00 +13°C° 0 mm 3 m/s 744 mmHg 81%
03:00 +14°C° 0 mm 3 m/s 744 mmHg 80%
04:00 +14°C° 0 mm 3 m/s 744 mmHg 78%
05:00 +16°C° 0 mm 3 m/s 745 mmHg 75%
06:00 +17°C° 0 mm 4 m/s 745 mmHg 72%
07:00 +18°C° 0 mm 4 m/s 746 mmHg 70%
08:00 +19°C° 0 mm 4 m/s 746 mmHg 64%
09:00 +20°C° 0 mm 4 m/s 746 mmHg 58%
10:00 +21°C° 0 mm 4 m/s 746 mmHg 52%
11:00 +22°C° 0 mm 4 m/s 746 mmHg 49%
12:00 +22°C° 0 mm 4 m/s 746 mmHg 46%
13:00 +23°C° 0 mm 4 m/s 746 mmHg 44%
14:00 +23°C° 0 mm 4 m/s 745 mmHg 47%
15:00 +22°C° 0 mm 3 m/s 745 mmHg 50%
16:00 +22°C° 0 mm 3 m/s 745 mmHg 53%
17:00 +21°C° 0 mm 2 m/s 745 mmHg 55%
18:00 +20°C° 0 mm 2 m/s 745 mmHg 58%
19:00 +20°C° 0 mm 1 m/s 745 mmHg 61%
20:00 +20°C° 0.1 mm 1 m/s 745 mmHg 65%
21:00 +19°C° 0.1 mm 1 m/s 746 mmHg 70%
22:00 +18°C° 0.1 mm 1 m/s 746 mmHg 75%
23:00 +17°C° 0.1 mm 2 m/s 746 mmHg 77%

Amanhã, 4 Agosto, Quarta-feira

Tempo Temperatura Precipitação Vento Pressão Humidade
00:00 +16°C° 0.1 mm 2 m/s 746 mmHg 79%
01:00 +16°C° 0.1 mm 2 m/s 746 mmHg 81%
02:00 +15°C° 0.1 mm 2 m/s 746 mmHg 84%
03:00 +15°C° 0.1 mm 2 m/s 746 mmHg 88%
04:00 +14°C° 0.1 mm 2 m/s 745 mmHg 92%
05:00 +15°C° 0.1 mm 2 m/s 745 mmHg 88%
06:00 +16°C° 0.1 mm 2 m/s 746 mmHg 84%
07:00 +18°C° 0.1 mm 2 m/s 746 mmHg 81%
08:00 +18°C° 0.1 mm 2 m/s 746 mmHg 78%
09:00 +19°C° 0.1 mm 2 m/s 746 mmHg 75%
10:00 +20°C° 0.1 mm 2 m/s 746 mmHg 73%
11:00 +20°C° 0.5 mm 2 m/s 746 mmHg 73%
12:00 +20°C° 0.5 mm 2 m/s 746 mmHg 73%
13:00 +20°C° 0.5 mm 2 m/s 745 mmHg 73%
14:00 +19°C° 0.3 mm 2 m/s 745 mmHg 77%
15:00 +18°C° 0.3 mm 2 m/s 745 mmHg 82%
16:00 +17°C° 0.3 mm 2 m/s 745 mmHg 86%
17:00 +17°C° 0 mm 2 m/s 745 mmHg 87%
18:00 +18°C° 0 mm 1 m/s 745 mmHg 88%
19:00 +16°C° 0 mm 1 m/s 745 mmHg 89%
20:00 +16°C° 0 mm 1 m/s 745 mmHg 90%
21:00 +16°C° 0 mm 1 m/s 745 mmHg 91%
22:00 +15°C° 0 mm 1 m/s 745 mmHg 92%
23:00 +15°C° 0 mm 1 m/s 745 mmHg 92%

Depois de amanhã, 5 Agosto, Quinta-feira

Tempo Temperatura Precipitação Vento Pressão Humidade
00:00 +15°C° 0 mm 1 m/s 744 mmHg 92%
01:00 +15°C° 0 mm 1 m/s 744 mmHg 92%
02:00 +14°C° 0 mm 1 m/s 744 mmHg 92%
03:00 +14°C° 0 mm 1 m/s 744 mmHg 92%
04:00 +14°C° 0 mm 1 m/s 744 mmHg 92%
05:00 +15°C° 0 mm 2 m/s 744 mmHg 89%
06:00 +16°C° 0 mm 2 m/s 743 mmHg 85%
07:00 +17°C° 0 mm 3 m/s 743 mmHg 82%
08:00 +18°C° 0 mm 3 m/s 743 mmHg 77%
09:00 +19°C° 0 mm 3 m/s 743 mmHg 73%
10:00 +20°C° 0 mm 3 m/s 743 mmHg 68%
11:00 +20°C° 0 mm 3 m/s 742 mmHg 70%
12:00 +20°C° 0 mm 3 m/s 742 mmHg 73%
13:00 +19°C° 0 mm 3 m/s 742 mmHg 75%
14:00 +19°C° 0.1 mm 3 m/s 741 mmHg 78%
15:00 +18°C° 0.1 mm 3 m/s 741 mmHg 82%
16:00 +18°C° 0.1 mm 4 m/s 741 mmHg 85%
17:00 +18°C° 0.1 mm 4 m/s 740 mmHg 86%
18:00 +18°C° 0.1 mm 4 m/s 739 mmHg 87%
19:00 +17°C° 0.1 mm 5 m/s 739 mmHg 88%
20:00 +16°C° 0.6 mm 5 m/s 739 mmHg 90%
21:00 +16°C° 0.6 mm 5 m/s 738 mmHg 92%
22:00 +16°C° 0.6 mm 5 m/s 738 mmHg 94%
23:00 +16°C° 1.6 mm 5 m/s 737 mmHg 95%

6 Agosto, Sexta-feira

Tempo Temperatura Precipitação Vento Pressão Humidade
00:00 +16°C° 1.6 mm 5 m/s 737 mmHg 96%
01:00 +15°C° 1.6 mm 4 m/s 736 mmHg 97%
02:00 +15°C° 1.8 mm 4 m/s 736 mmHg 97%
03:00 +15°C° 1.8 mm 4 m/s 736 mmHg 97%
04:00 +15°C° 1.8 mm 4 m/s 736 mmHg 97%
05:00 +14°C° 2.7 mm 4 m/s 736 mmHg 97%
06:00 +14°C° 2.7 mm 4 m/s 736 mmHg 97%
07:00 +14°C° 2.7 mm 3 m/s 736 mmHg 97%
08:00 +14°C° 1.2 mm 3 m/s 736 mmHg 97%
09:00 +14°C° 1.2 mm 3 m/s 737 mmHg 97%
10:00 +14°C° 1.2 mm 3 m/s 737 mmHg 96%
11:00 +14°C° 1.2 mm 3 m/s 737 mmHg 96%
12:00 +14°C° 1.2 mm 4 m/s 737 mmHg 96%
13:00 +14°C° 1.2 mm 4 m/s 738 mmHg 96%
14:00 +14°C° 0.6 mm 4 m/s 738 mmHg 96%
15:00 +14°C° 0.6 mm 4 m/s 738 mmHg 96%
16:00 +14°C° 0.6 mm 4 m/s 738 mmHg 96%
17:00 +14°C° 0.3 mm 4 m/s 739 mmHg 96%
18:00 +14°C° 0.3 mm 4 m/s 739 mmHg 96%
19:00 +14°C° 0.3 mm 4 m/s 739 mmHg 97%
20:00 +14°C° 0.1 mm 4 m/s 739 mmHg 96%
21:00 +14°C° 0.1 mm 4 m/s 739 mmHg 95%
22:00 +14°C° 0.1 mm 4 m/s 739 mmHg 95%
23:00 +14°C° 0 mm 4 m/s 739 mmHg 95%

7 Agosto, Sábado

Tempo Temperatura Precipitação Vento Pressão Humidade
00:00 +13°C° 0 mm 4 m/s 740 mmHg 95%
01:00 +13°C° 0 mm 4 m/s 740 mmHg 95%
02:00 +13°C° 0 mm 3 m/s 740 mmHg 95%
03:00 +13°C° 0 mm 3 m/s 740 mmHg 95%
04:00 +13°C° 0 mm 3 m/s 740 mmHg 95%
05:00 +14°C° 0 mm 3 m/s 741 mmHg 91%
06:00 +15°C° 0 mm 4 m/s 741 mmHg 86%
07:00 +17°C° 0 mm 4 m/s 741 mmHg 82%
08:00 +19°C° 0 mm 4 m/s 741 mmHg 75%
09:00 +20°C° 0 mm 5 m/s 742 mmHg 67%
10:00 +22°C° 0 mm 5 m/s 742 mmHg 59%
11:00 +23°C° 0 mm 5 m/s 742 mmHg 55%
12:00 +23°C° 0 mm 5 m/s 742 mmHg 51%
13:00 +25°C° 0 mm 5 m/s 742 mmHg 46%
14:00 +26°C° 0 mm 4 m/s 742 mmHg 48%
15:00 +26°C° 0 mm 3 m/s 742 mmHg 50%
16:00 +26°C° 0 mm 3 m/s 742 mmHg 52%
17:00 +25°C° 0 mm 3 m/s 743 mmHg 57%
18:00 +23°C° 0 mm 2 m/s 743 mmHg 63%
19:00 +21°C° 0 mm 2 m/s 743 mmHg 69%
20:00 +20°C° 0 mm 2 m/s 743 mmHg 69%
21:00 +20°C° 0 mm 2 m/s 744 mmHg 69%
22:00 +20°C° 0 mm 2 m/s 744 mmHg 70%
23:00 +19°C° 0 mm 2 m/s 744 mmHg 72%

8 Agosto, Domingo

Tempo Temperatura Precipitação Vento Pressão Humidade
00:00 +18°C° 0 mm 3 m/s 744 mmHg 73%
01:00 +18°C° 0 mm 3 m/s 744 mmHg 75%
02:00 +17°C° 0 mm 3 m/s 744 mmHg 76%
03:00 +17°C° 0 mm 3 m/s 745 mmHg 76%
04:00 +17°C° 0 mm 3 m/s 745 mmHg 77%
05:00 +18°C° 0 mm 3 m/s 745 mmHg 75%
06:00 +19°C° 0 mm 3 m/s 745 mmHg 72%
07:00 +21°C° 0 mm 3 m/s 745 mmHg 69%
08:00 +22°C° 0 mm 3 m/s 745 mmHg 64%
09:00 +25°C° 0 mm 4 m/s 746 mmHg 59%
10:00 +27°C° 0 mm 4 m/s 746 mmHg 55%
11:00 +27°C° 0 mm 4 m/s 746 mmHg 54%
12:00 +28°C° 0 mm 4 m/s 746 mmHg 54%
13:00 +28°C° 0 mm 4 m/s 746 mmHg 54%
14:00 +28°C° 0 mm 3 m/s 746 mmHg 55%
15:00 +29°C° 0 mm 3 m/s 746 mmHg 55%
16:00 +29°C° 0 mm 3 m/s 746 mmHg 56%
17:00 +27°C° 0.1 mm 3 m/s 746 mmHg 63%
18:00 +25°C° 0.1 mm 3 m/s 746 mmHg 71%
19:00 +22°C° 0.1 mm 4 m/s 747 mmHg 78%
20:00 +21°C° 0.5 mm 3 m/s 747 mmHg 83%
21:00 +20°C° 0.5 mm 3 m/s 747 mmHg 88%
22:00 +19°C° 0.5 mm 3 m/s 748 mmHg 93%
23:00 +18°C° 0.1 mm 3 m/s 748 mmHg 94%
Mostrar mais

Necessitamos do seu Consentimento

A Meteoprog e os seus Fornecedores de Serviços podem armazenar e aceder a dados pessoais como cookies, identificadores do dispositivo ou outras tecnologias semelhantes existentes no seu dispositivo e processar estes dados para personalizar conteúdos e anúncios, assim como funcionalidades nas redes sociais e análise de tráfego.

  • Armazenar e/ou aceder a informações no seu dispositivo

    Os cookies, identificadores do dispositivo ou outras informações podem ser armazenados ou acedidos no seu dispositivo, para os fins acima indicados.

  • Anúncios e conteúdos personalizados, medição de anúncios e conteúdos, dados sobre o público-alvo e desenvolvimento de produtos

    Os anúncios e os conteúdos podem ser personalizados com base num perfil. Podem ser adicionados dados adicionais para uma maior personalização dos anúncios e dos conteúdos. A eficácia dos anúncios e dos conteúdos pode ser medida. Podem ser obtidas informações sobre o público que visualizou os anúncios e os conteúdos. Estes dados podem ser usados para desenvolver ou melhorar sistemas, softwares ou a experiência do utilizador.

Ao clicar em "Eu concordo”, permitirá o uso de cookies, identificadores do dispositivo e web beacons mencionados ou outras tecnologias semelhantes. As configurações do navegador do seu dispositivo podem ser alteradas.

Para certos fins, podem ser invocados interesses legítimos ao invés de consentimento. Pode ler mais informação sobre este assunto na nossa Política de Privacidade e Cookies.